Theta_e
287 288 289 287 288 291 287 289 285 287 288 292 294 293 294 296 296 294 293 294 294 294 295 296 297 298 299 299 300 300 300 298 300 302 304 307 309 312 313 313 318 319 320 321
280 288 288 285 288 289 290 290 289 289 288 293 293 294 295 295 295 292 293 294 294 294 294 294 294 296 297 298 298 298 298 297 298 298 298 300 303 304 303 304 310 313 312 313
270 282 284 279 285 286 287 289 290 285 291 293 292 293 289 289 291 291 291 291 291 292 292 292 293 294 294 295 295 295 294 294 294 292 292 293 293 295 297 300 302 305 307 307
273 271 267 281 287 290 288 289 290 290 292 292 292 289 288 288 288 288 289 289 290 290 289 290 290 292 292 291 291 292 291 292 291 292 291 291 290 291 295 298 298 301 301 303
277 268 276 281 283 285 285 281 283 286 285 285 289 288 284 286 287 287 287 287 288 287 287 286 288 290 288 287 288 288 289 289 290 290 290 290 290 290 291 294 296 297 294 296
270 267 266 279 285 288 288 278 281 281 280 280 286 282 283 283 283 283 284 285 283 284 284 285 286 285 284 284 284 285 287 287 288 289 289 289 289 290 291 291 292 294 293 292
267 264 273 283 286 288 275 277 278 278 276 277 278 278 280 281 280 281 281 281 281 280 281 283 282 282 281 282 281 284 285 285 284 286 287 288 288 289 289 289 290 291 291 291
274 274 272 277 282 281 276 276 275 274 274 273 274 276 276 276 276 277 277 277 278 278 278 278 279 279 278 279 281 282 279 278 280 284 286 287 287 287 288 288 288 288 288 290
278 276 274 274 272 274 275 272 271 271 271 272 272 271 272 272 273 274 274 275 276 275 274 276 276 276 277 278 278 275 274 275 279 283 285 286 287 287 287 288 288 288 288 289
279 275 272 272 271 272 271 270 270 270 270 270 269 269 269 269 271 271 272 272 272 272 271 271 273 275 274 274 273 271 271 275 279 279 281 285 286 287 287 287 288 288 288 288
270 272 271 270 269 269 269 269 268 268 268 268 267 267 268 268 268 269 269 269 269 269 269 269 270 270 270 270 269 269 269 270 273 277 280 281 284 286 287 288 289 288 288 289
274 269 270 270 269 267 267 266 266 266 265 266 267 266 266 266 266 266 266 267 266 266 266 266 267 267 266 267 266 265 266 268 268 269 272 276 280 284 289 289 290 291 291 291
266 267 267 268 269 266 265 264 265 264 265 264 265 264 264 263 264 265 265 265 264 264 265 264 264 264 265 265 265 264 264 266 267 268 269 272 277 281 283 287 289 289 290 291
264 265 266 265 263 264 264 264 263 263 264 263 263 263 262 262 263 263 263 263 264 263 262 262 263 263 264 265 265 264 265 266 266 267 269 272 277 282 284 285 285 286 288 289
262 263 263 263 262 262 262 262 260 261 261 261 261 261 261 261 261 261 262 263 263 261 261 262 262 262 265 265 265 264 265 267 268 269 270 274 278 281 284 285 285 286 286 286
261 260 260 259 259 259 259 258 258 259 259 259 259 259 260 261 262 261 262 262 261 260 261 262 261 263 265 264 264 265 267 268 270 271 272 275 278 279 283 284 284 285 284 284
256 254 252 251 253 256 256 257 257 257 258 256 256 257 256 260 261 261 261 262 262 261 262 261 261 264 264 264 264 265 266 267 268 269 269 271 272 273 274 278 281 282 281 280
255 255 253 252 251 251 253 252 252 253 254 256 255 255 255 259 259 259 260 262 262 261 261 261 262 264 263 263 264 265 265 265 266 267 268 268 268 268 269 270 269 270 270 271
249 252 252 254 252 252 252 252 253 254 257 256 255 254 257 258 259 260 260 260 259 258 259 261 264 262 261 262 264 264 263 263 264 265 265 266 266 267 267 267 267 267 267 267
247 247 248 249 249 250 250 251 252 253 255 253 252 254 255 258 259 259 259 258 258 258 260 260 260 260 260 261 263 262 262 262 262 262 263 263 264 264 264 265 265 265 265 265
247 247 248 249 249 248 250 250 250 250 250 252 252 254 256 257 258 258 257 256 257 259 259 259 259 259 259 259 260 260 260 260 260 260 261 261 261 262 262 263 263 263 264 264
247 249 249 248 248 247 247 247 248 249 250 252 254 255 256 255 255 255 255 255 257 258 258 257 258 259 258 258 258 257 258 258 258 258 259 259 260 260 260 261 261 261 262 262
247 248 249 249 250 249 247 248 248 248 251 253 253 254 254 255 255 254 253 254 256 257 256 256 258 259 257 256 255 255 256 256 256 256 256 257 258 258 259 259 259 260 260 261
252 252 252 251 250 252 251 249 249 251 252 252 252 252 251 253 253 252 254 255 255 256 255 256 257 260 256 254 253 253 254 254 254 254 255 255 255 256 256 256 257 258 258 259
254 253 252 251 251 251 249 250 250 251 250 250 250 251 250 251 250 253 253 253 255 254 253 254 257 256 252 252 252 252 252 252 252 252 252 253 253 253 253 254 254 254 255 256
252 252 252 252 251 251 250 250 249 249 248 249 248 248 249 250 251 252 252 253 252 253 252 252 252 252 251 251 251 251 251 251 251 251 251 251 251 251 251 252 252 252 253 253
250 252 249 250 249 249 249 249 247 247 247 245 247 249 248 249 249 251 251 251 251 251 250 249 250 251 250 250 250 250 250 250 251 250 250 250 250 250 250 250 250 251 251 252
Wind_Speed
3 8 5 6 5 9 9 8 2 8 11 16 14 6 4 4 1 4 7 10 11 11 10 11 13 12 12 12 11 12 13 10 10 9 9 9 10 10 9 8 12 11 12 12
2 4 1 3 6 9 16 14 14 13 18 7 3 4 8 9 10 10 13 13 13 13 13 13 13 14 14 14 14 14 14 14 13 11 11 10 10 11 8 8 10 9 9 9
4 1 5 3 17 12 4 5 12 10 14 6 5 6 11 10 11 12 11 12 12 12 12 13 14 14 14 15 15 14 14 14 11 11 12 13 9 10 13 12 9 9 10 7
3 4 1 10 3 13 15 5 6 8 13 7 1 14 13 11 11 10 11 12 13 13 14 14 14 13 14 14 14 13 13 13 14 14 13 14 10 10 12 11 13 12 10 10
5 3 6 10 2 6 6 2 11 5 12 11 7 10 9 12 11 10 10 10 10 11 14 17 15 15 16 15 14 14 14 13 15 16 17 15 15 14 11 9 12 14 7 9
2 6 9 6 5 4 5 2 10 10 12 13 11 3 1 12 11 10 11 10 12 13 14 13 15 18 17 15 15 16 16 17 16 16 16 17 16 15 12 8 11 11 11 10
4 3 7 7 8 4 7 3 6 9 10 10 5 4 11 16 16 13 12 15 15 14 14 14 17 16 18 16 16 16 17 18 19 18 17 16 16 14 12 11 10 11 15 9
3 2 7 9 4 3 2 9 9 8 9 9 8 8 10 12 14 15 17 18 16 16 15 15 15 15 19 17 17 17 20 21 20 18 15 13 15 15 14 12 11 11 10 11
6 4 6 14 17 9 10 8 6 9 10 12 13 12 13 13 13 14 16 15 15 16 19 14 15 15 18 19 18 22 21 21 20 21 19 16 17 16 13 12 10 10 9 9
7 4 8 10 11 10 9 8 6 8 9 11 12 15 15 14 13 13 13 15 15 17 19 20 15 15 17 18 20 20 21 20 18 19 19 18 14 12 12 11 11 10 10 10
7 6 8 8 10 8 7 8 9 10 10 12 14 14 15 15 16 15 16 15 15 16 17 20 20 18 17 18 18 19 19 18 17 14 16 17 15 14 12 14 12 12 12 10
4 8 2 6 7 8 8 10 11 12 13 13 13 15 17 14 15 14 16 16 15 16 17 18 18 18 18 16 16 17 18 15 14 14 14 13 14 15 19 23 25 26 27 21
6 3 1 3 3 11 9 10 10 9 9 11 12 12 13 14 13 17 15 15 16 17 17 17 16 16 16 16 16 17 17 17 14 15 14 14 14 14 15 12 19 23 26 26
6 2 6 5 2 6 7 7 6 4 5 8 9 9 10 11 13 13 14 14 14 15 15 15 16 18 17 17 17 17 18 22 15 13 13 15 14 15 13 13 12 11 13 20
5 4 4 3 3 4 5 6 7 9 10 9 8 8 9 12 13 14 14 14 14 13 12 14 17 18 19 18 18 18 16 14 14 13 13 16 15 16 13 13 12 12 9 8
5 4 5 3 3 4 5 6 5 6 6 6 6 8 9 10 10 10 11 12 13 14 15 16 16 19 19 19 19 16 14 20 18 13 13 13 12 13 13 12 12 11 9 9
5 2 3 3 2 4 4 4 4 6 6 5 6 7 6 7 8 10 12 12 11 12 12 15 17 19 19 18 19 13 12 13 18 12 12 12 11 11 11 11 8 6 5 5
5 4 4 4 2 3 5 4 4 4 4 8 8 8 5 7 8 11 12 12 11 11 11 15 17 18 18 18 19 14 12 13 13 13 12 13 12 11 11 11 10 9 8 9
2 3 1 2 1 2 4 4 3 2 5 4 7 8 6 5 7 9 11 10 11 13 15 16 21 18 17 20 20 13 13 14 14 13 13 16 14 13 12 12 11 11 10 9
2 1 2 1 1 2 2 3 3 4 4 3 4 6 7 8 8 9 10 8 6 9 15 15 15 15 17 19 21 12 13 14 14 13 13 13 13 14 13 16 13 12 11 10
4 3 3 3 1 1 1 2 2 4 5 3 3 5 8 9 7 8 8 7 10 12 14 14 12 12 12 15 13 12 12 13 13 13 13 13 12 12 12 13 12 12 12 11
4 4 3 1 2 2 3 3 2 3 4 4 4 4 6 7 6 6 5 3 9 15 10 9 10 16 14 17 10 11 12 12 11 11 11 11 11 11 12 12 12 12 11 11
4 3 3 2 3 3 2 1 2 2 4 3 3 4 4 5 5 5 8 6 8 11 8 8 15 18 18 9 9 10 11 11 11 11 10 11 11 11 11 11 11 11 11 11
3 4 3 2 1 2 2 2 3 3 3 4 3 3 2 5 5 2 4 8 10 11 8 10 13 17 14 8 9 9 9 9 10 10 10 13 10 10 10 11 11 10 10 12
4 3 3 3 2 3 2 1 3 3 4 4 4 4 4 2 2 6 6 7 10 9 7 9 14 14 8 8 8 8 8 8 9 9 9 9 9 9 9 10 9 10 9 9
4 3 3 5 3 3 2 1 2 2 2 3 3 3 3 3 3 4 5 7 6 8 7 7 7 8 8 8 8 8 8 8 8 8 9 8 8 8 8 9 9 9 9 9
2 3 1 1 2 3 3 3 2 3 2 2 4 4 4 4 4 5 6 6 6 6 5 6 6 7 7 7 7 8 7 7 8 8 7 7 7 7 8 9 9 8 8 8
Wind_Direction
132 133 143 145 158 194 196 195 182 212 210 242 290 84 134 184 18 35 4 10 29 37 24 8 1 353 349 342 340 342 338 318 297 293 291 289 285 277 269 257 249 242 236 230
277 127 185 155 217 199 203 227 233 251 264 170 102 20 12 354 9 39 45 33 24 18 14 4 353 347 343 345 347 339 334 327 319 315 304 293 287 286 282 272 263 250 236 227
238 270 139 349 222 219 220 202 215 220 254 79 48 57 51 55 42 42 27 19 14 8 356 348 346 341 342 336 332 331 331 328 323 318 313 307 293 298 288 279 276 261 250 230
141 34 359 240 301 205 215 244 337 313 297 47 293 95 78 43 44 25 14 9 357 352 343 342 334 336 334 332 326 324 322 326 330 330 322 314 298 280 280 277 272 263 254 242
143 179 295 300 263 145 154 123 6 352 26 6 347 112 78 35 27 12 5 348 354 338 334 324 327 335 333 327 326 326 327 327 326 324 320 316 306 295 277 272 274 265 243 236
114 156 205 252 292 236 128 217 15 34 31 10 339 98 75 4 0 355 346 345 335 333 324 322 334 334 328 326 329 326 327 323 321 314 309 308 304 298 285 261 266 272 257 237
190 181 283 250 278 323 109 202 40 43 30 20 41 21 322 342 338 337 334 335 334 330 325 331 332 326 322 323 323 318 317 320 315 308 303 301 300 298 286 271 268 262 263 247
129 137 257 15 331 167 68 67 52 36 17 355 333 322 327 321 321 327 330 333 334 326 327 326 324 328 316 315 317 325 322 312 310 306 303 301 300 302 292 276 266 265 260 260
162 182 73 42 83 64 52 74 34 14 352 345 334 333 330 326 323 325 325 324 330 325 314 320 327 317 313 318 330 320 314 309 305 305 306 302 300 297 294 280 265 260 251 252
128 83 117 92 71 73 62 64 30 10 350 342 331 331 329 328 330 329 330 323 323 320 316 313 318 321 312 320 316 311 305 303 309 309 301 300 295 289 282 275 268 264 253 248
87 116 123 95 60 55 47 32 17 1 353 346 339 333 329 333 332 329 325 325 322 317 314 313 320 318 320 314 313 310 310 306 300 300 305 303 291 285 271 264 258 268 261 257
174 134 88 106 75 38 28 19 12 357 349 345 341 336 337 329 329 325 325 322 323 320 315 313 312 314 311 313 315 308 304 307 303 300 297 292 288 286 265 259 257 253 255 252
137 126 43 22 103 32 21 14 7 350 343 341 344 338 332 327 324 321 321 323 326 321 317 314 311 309 312 312 310 305 300 300 298 298 294 292 288 283 287 278 252 252 254 250
73 123 129 78 17 8 18 7 349 339 10 351 345 335 329 327 327 332 327 321 322 321 313 313 319 317 317 316 311 302 300 298 293 291 290 290 286 286 281 280 281 276 246 244
103 61 83 100 61 34 17 5 9 15 360 352 351 338 335 337 338 334 325 320 318 318 321 325 328 322 327 324 320 313 308 302 298 293 288 284 288 286 277 278 275 275 273 246
121 104 116 90 56 23 8 5 357 340 338 328 329 341 339 328 322 321 326 329 331 335 330 335 331 329 332 329 327 320 318 315 315 310 309 307 304 304 289 273 274 270 261 246
109 83 45 38 17 350 339 321 313 307 306 310 337 327 312 328 341 339 335 336 326 333 331 339 333 331 336 336 333 331 329 328 330 331 333 333 332 331 330 329 314 304 315 311
93 91 124 150 199 302 319 300 285 321 340 334 327 307 325 356 348 336 330 332 333 332 344 340 336 340 340 342 342 337 337 339 344 347 348 350 347 348 350 353 359 4 360 359
113 152 152 92 216 230 255 287 313 333 347 353 323 317 319 332 343 332 327 328 343 338 340 337 339 342 345 342 349 343 344 345 350 356 360 358 357 1 5 6 4 7 7 10
134 150 124 199 319 166 292 301 330 355 329 344 310 320 325 344 346 326 327 317 344 328 327 332 341 348 345 347 346 343 348 351 351 356 360 3 3 1 3 9 11 9 13 16
158 167 174 161 210 304 213 297 9 352 309 335 328 317 317 318 330 317 325 329 335 337 334 338 348 352 353 344 344 345 347 353 354 356 359 357 356 3 4 4 6 10 11 12
176 169 184 150 98 318 302 316 15 336 329 323 302 304 309 321 323 313 286 322 326 334 338 340 344 353 351 348 345 343 350 354 351 358 356 354 355 356 4 5 3 3 6 11
183 174 181 179 179 211 294 22 344 325 305 299 302 314 317 313 309 326 331 323 329 327 337 336 343 355 355 349 342 346 349 348 353 355 351 353 353 353 356 358 1 1 1 4
178 178 192 192 154 81 30 311 342 304 281 300 301 296 303 338 317 236 282 307 316 339 336 338 345 352 351 341 346 347 345 345 350 349 349 350 349 348 354 354 354 355 357 358
189 184 171 157 156 214 196 268 329 309 321 310 310 303 313 293 217 308 316 316 323 335 331 333 342 344 342 343 341 338 337 339 343 345 343 343 343 345 345 346 347 346 347 349
189 201 199 195 192 180 192 133 246 275 309 313 294 282 297 284 295 306 306 315 320 327 331 332 332 334 335 334 330 327 330 331 335 334 333 332 334 335 336 336 335 335 334 334
195 196 187 264 222 183 172 187 213 267 256 248 264 278 293 305 305 316 312 315 314 311 309 312 315 320 319 321 320 319 320 317 320 324 322 321 324 324 324 325 323 321 320 319